Meteo Giornale » Osservazioni meteo Stati Uniti (USA) » Baltimore-Washington

ore: 15:54 - Osservazioni Meteo Baltimore-Washington
Lat. 39° 10' N Lon. 76° 41' W Alt. 44 metri s.l.m.

nuvoloso

34 °C

Nuvoloso

Temp. 24 Ore

23 °C

34 °C

Ovest

20.3 Km/h

Dew point 21 °C

Umidità 46 %

Visibilità  10 Km

Il sole sorge alle ore 06:35

Il sole tramonta alle ore 19:37

Data e Ora Cielo e Fenomeni T °C DP °C Um. % Pres. hPa Vis. km Vento km/h
Oggi h: 15:54 nuvoloso Nuvoloso 34 21 46 1014 10 O 20.3
Oggi h: 14:54 nuvoloso Nuvoloso 34 22 49 1015 10 O/NO 13
Oggi h: 13:54 nuvoloso Nuvoloso 34 23 52 1015 10 O/NO 18.5
Oggi h: 12:54 nuvoloso Nuvoloso 32 22 55 1015 10 O 13
Oggi h: 11:54 molto_nuvoloso Molto Nuvoloso 33 22 52 1016 10 O 14.8
Oggi h: 10:54 nuvoloso Nuvoloso 32 22 55 1016 10 O/SO 16.7
Oggi h: 09:54 molto_nuvoloso Molto Nuvoloso 29 22 66 1016 10 O/SO 13
Oggi h: 08:54 nuvoloso Nuvoloso 28 22 69 1016 10 O/SO 14.8
Oggi h: 07:54 nuvoloso Nuvoloso 26 23 83 1016 10 O/SO 9.3
Oggi h: 06:54 nuvoloso Nuvoloso 24 22 88 1016 13 O 7.4
Oggi h: 05:54 nuvoloso Nuvoloso 24 23 94 1016 13 N 0
Oggi h: 04:54 molto_nuvoloso Molto Nuvoloso 23 22 94 1016 13 N 5.5
Oggi h: 03:54 nuvoloso Nuvoloso 24 22 88 1016 14 N 0
Oggi h: 02:54 nuvoloso Nuvoloso 24 22 88 1017 10 N 0
Oggi h: 01:54 molto_nuvoloso Molto Nuvoloso 25 22 83 1017 10 N 5.5
Oggi h: 00:54 coperto Coperto 25 22 83 1017 14 N 5.5
Ieri h: 23:54 molto_nuvoloso Molto Nuvoloso 25 22 83 1018 10 N 0
Ieri h: 22:54 molto_nuvoloso Molto Nuvoloso 24 22 88 1018 10 N 0
Ieri h: 21:54 molto_nuvoloso Molto Nuvoloso 25 22 83 1018 10 N 0
Ieri h: 20:54 molto_nuvoloso Molto Nuvoloso 26 21 73 1017 10 S 7.4
Ieri h: 19:54 molto_nuvoloso Molto Nuvoloso 27 21 69 1017 10 S/SE 7.4
Ieri h: 18:54 molto_nuvoloso Molto Nuvoloso 28 21 65 1018 10 E 11.1
Ieri h: 17:54 molto_nuvoloso Molto Nuvoloso 28 21 65 1018 10 N 0
Ieri h: 16:54 molto_nuvoloso Molto Nuvoloso 29 21 62 1018 10 N 5.5